Miscellaneous Local Product
Issued by NWS North Platte, NE

Home | Current Version | Previous Version | Text Only | Print | Product List | Glossary On
Versions: 1 2 3 4 5 6 7 8 9 10 11 12 13 14 15 16 17 18 19 20 21 22 23 24 25 26 27 28 29 30 31 32 33 34 35 36 37 38 39 40 41 42 43 44 45 46 47 48 49 50
000
AXUS43 KLBF 260110
MISLBF


WESTERN AND NORTH CENTRAL NEBRASKA HOURLY WEATHER ROUNDUP
NATIONAL WEATHER SERVICE NORTH PLATTE NE
800 PM CDT FRI JUL 25 2014

***STATIONS NOT REPORTING VARIABLES SUCH AS SKY/WEATHER OR
PRESSURE ARE PROVIDED BY THE NEBRASKA DEPARTMENT OF
ROADS...RAWS...AND APRS NETWORKS...AND ARE NOT UNDER
NATIONAL WEATHER SERVICE QUALITY CONTROL***

...OBSERVATIONS IN AND NEAR THE EASTERN PANHANDLE OF NEBRASKA...

CITY           SKY/WX    TMP DP  RH WIND       PRES   REMARKS
PINE RIDGE     PTSUNNY   78  57  48 E9        29.87F
CHADRON        PTSUNNY   85  54  34 SE13      29.85F
ALLIANCE       TSTM      79  57  46 NW7       30.01R
SIDNEY         CLOUDY    89  49  25 S16       29.96F
WHITECLAY        N/A     82  54  36 SE9         N/A
RUSHVILLE        N/A     84  48  27 S14         N/A
GORDON           N/A     84  56  37 E13         N/A
CRESCENT LAKE    N/A     83  59  43 NE3         N/A
LISCO            N/A     87  53  30 SE6         N/A
$$

...OBSERVATIONS IN NORTH CENTRAL NEBRASKA...

CITY           SKY/WX    TMP DP  RH WIND       PRES   REMARKS
VALENTINE      SUNNY     87  59  38 NE5       29.84S
THEDFORD       PTSUNNY   86  66  51 CALM      29.89R
AINSWORTH      MOSUNNY   87  66  49 SE5       29.85R
O`NEILL        CLEAR     89  66  46 CALM      29.80S HX  92
ORD            PTCLDY    85  73  67 SW3       29.80S HX  91
BROKEN BOW     MOSUNNY   86  72  62 SE6       29.84F HX  92
BROWNLEE         N/A     94  65  38 CALM        N/A  HX  97
SPRINGVIEW       N/A     90  70  51 CALM        N/A  HX  95
DUNNING          N/A     87  71  57 CALM        N/A  HX  93
ROSE             N/A     89  74  62 MISG        N/A  HX  98
NEWPORT          N/A     86  71  60 SE3         N/A  HX  91
SARGENT          N/A     88  71  56 CALM        N/A  HX  93
COMSTOCK         N/A     92  75  57 CALM        N/A  HX 103
CHAMBERS         N/A     89  65  44 CALM        N/A  HX  90
$$

...OBSERVATIONS IN SOUTHWEST NEBRASKA AND FAR NORTHEAST COLORADO...

CITY           SKY/WX    TMP DP  RH WIND       PRES   REMARKS
WRAY             N/A     93  53  25 E9        29.93F HX  91
HOLYOKE        FAIR      81  70  69 S3        29.94S
IMPERIAL       CLOUDY    86  66  51 CALM      29.89F
OGALLALA       HAZE      83  64  51 SE6       29.90R VSB 3/4
NORTH PLATTE   MOSUNNY   83  71  67 E6        29.85S
MCCOOK         PTSUNNY   87  68  52 E6        29.85S HX  90
LEXINGTON      CLEAR     87  72  60 CALM      29.84F HX  93
SUTHERLAND       N/A     88  76  69 CALM        N/A  HX  99
BRADY            N/A     86  72  62 CALM        N/A  HX  92
GOTHENBURG       N/A     91  65  42 E3          N/A  HX  93
$$

...SOME WEATHER OBSERVATIONS FROM AROUND THE REGION...

CITY           SKY/WX    TMP DP  RH WIND       PRES   REMARKS
DENVER         PTSUNNY   77  54  44 S13       30.10R
LARAMIE        CLOUDY    73  45  36 SW13      30.20F
CHEYENNE       CLOUDY    79  48  33 S15G23    30.13R
SCOTTSBLUFF    CLOUDY    75  66  73 E13       29.94F
RAPID CITY     MOSUNNY   77  58  51 SE7       29.85F
PIERRE         SUNNY     84  51  31 NE6       29.80R
WINNER         FAIR      87  67  51 NE6       29.81R HX  90
SIOUX FALLS    PTCLDY    82  70  66 N3        29.77R
OMAHA          MOCLDY    89  78  70 E8        29.72S HX 103
GRAND ISLAND   PTCLDY    89  74  60 W6        29.81R HX  98
KANSAS CITY    MOCLDY    89  72  56 S17G23    29.77R HX  96
WICHITA        PTCLDY    96  60  30 S17G24    29.78R HX  96
HAYS           CLEAR     93  70  46 N5        29.79R HX  99
LIBERAL        CLEAR    100  54  20 S15       29.83F HX  98
GOODLAND       PTSUNNY   90  59  35 E10       29.93S
$$



USA.gov is the U.S. government's official web portal to all federal, state and local government web resources and services.